Home   Weather   Oceanside   Past weeks

Flag for USA Past Weather in Oceanside, California, USA — Yesterday and Last 2 Weeks

Now
72 °F

Scattered clouds.


Feels Like: 75 °F
Forecast: 57 / 73 °F
Wind: 12 mph from West

Location: Oceanside Weather Reporting Station

Current Time: Apr 27, 2017 at 1:54:12 pm

Latest Report: Apr 27, 2017 at 12:52 pm


Visibility: 9 mi

Pressure: 29.79 "Hg

Humidity: 66%

Dew Point: 60 °F

Location of OceansideLocation

Past Weather in Oceanside — Graph

°F

Oceanside Temperature Yesterday

Maximum temperature yesterday: 73 °F (at 12:52 pm)
Minimum temperature yesterday: 50 °F (at 3:52 am)
Average temperature yesterday: 62 °F

High & Low Weather Summary for the Past Weeks

 TemperatureHumidityPressure
High81 °F (Apr 21, 3:52 pm)100% (Apr 13, 5:52 am)30.13 "Hg (Apr 13, 5:52 am)
Low44 °F (Apr 14, 6:38 am)35% (Apr 21, 3:52 pm)29.80 "Hg (Apr 27, 5:52 am)
Average62 °F80%29.96 "Hg
* Reported Apr 12 11:52 am — Apr 27 11:52 am, Oceanside, Weather by CustomWeather, © 2017

Note: Actual official high and low records may vary slightly from our data, if they occured in-between our weather recording intervals... More about our weather records

Advertising

Oceanside Weather History for the Previous 24 Hours

Scroll right to see more
 ConditionsComfort  
Time TempWeatherWind HumidityBarometerVisibility
11:52 am
Thu, Apr 27
70 °FOvercast.8 mph68%29.81 "Hg10 mi
10:52 am67 °FOvercast.No wind76%29.82 "Hg8 mi
9:52 am66 °FOvercast.3 mph75%29.83 "Hg8 mi
9:31 am65 °FOvercast.5 mph76%29.83 "Hg8 mi
9:24 am65 °FMostly cloudy.No wind76%29.82 "Hg7 mi
8:52 am63 °FOvercast.5 mph78%29.83 "Hg8 mi
7:52 am60 °FOvercast.5 mph83%29.83 "Hg8 mi
6:52 am59 °FOvercast.No wind87%29.81 "Hg8 mi
6:15 am58 °FOvercast.3 mph87%29.81 "Hg9 mi
5:52 am58 °FOvercast.5 mph87%29.80 "Hg10 mi
4:52 am57 °FPassing clouds.7 mph90%29.80 "Hg9 mi
3:52 am58 °FOvercast.5 mph90%29.83 "Hg9 mi
3:36 am56 °FPassing clouds.No wind93%29.83 "Hg9 mi
2:52 am58 °FPassing clouds.No wind90%29.82 "Hg9 mi
2:36 am58 °FPassing clouds.5 mph90%29.82 "Hg9 mi
1:52 am59 °FPassing clouds.3 mph90%29.82 "Hg9 mi
1:09 am61 °FOvercast.6 mph87%29.85 "Hg9 mi
12:52 am61 °FPassing clouds.5 mph87%29.84 "Hg9 mi
11:52 pm
Wed, Apr 26
61 °FPassing clouds.5 mph87%29.85 "Hg9 mi
11:02 pm60 °FPassing clouds.7 mph90%29.86 "Hg9 mi
10:52 pm60 °FPassing clouds.No wind90%29.85 "Hg9 mi
9:52 pm61 °FClear.No wind87%29.86 "Hg9 mi
8:52 pm64 °FClear.6 mph78%29.84 "Hg10 mi
7:52 pm64 °FClear.7 mph78%29.85 "Hg10 mi
6:52 pm65 °FSunny.7 mph78%29.84 "Hg9 mi
5:52 pm67 °FSunny.8 mph71%29.85 "Hg9 mi
4:52 pm69 °FSunny.8 mph66%29.85 "Hg9 mi
3:52 pm72 °FSunny.10 mph59%29.86 "Hg10 mi
2:52 pm73 °FSunny.8 mph59%29.88 "Hg9 mi
1:52 pm72 °FSunny.7 mph57%29.88 "Hg10 mi
Weather by CustomWeather, © 2017

See weather overviewHow to use our weather pages